AEE762 LTBJ-LGAV

Flight info

Callsign AEE762
Flight time 0h 38m
Altitude 26000
Route REDRA UP32 RIPLI UL995 VARIX
Aircraft A320/M-SDE3FGHIRWY/LB1

Departure

Time 2026-05-05 07:26
Airport Adnan Menderes International Airport (LTBJ)

Arrival

Time 2026-05-05 08:05
Airport Athens Eleftherios Venizelos International Airport (LGAV)
Time Latitude Longitude Altitude Speed Heading
2026-05-05 07:17 38.29148 27.15102 393 ft 0 kts 257°
2026-05-05 07:20 38.29151 27.15120 393 ft 4 kts 259°
2026-05-05 07:20 38.29158 27.15152 393 ft 4 kts 249°
2026-05-05 07:20 38.29169 27.15183 393 ft 4 kts 238°
2026-05-05 07:20 38.29176 27.15196 394 ft 1 kts 238°
2026-05-05 07:22 38.29174 27.15193 393 ft 2 kts 237°
2026-05-05 07:23 38.29112 27.15194 392 ft 15 kts 166°
2026-05-05 07:23 38.29021 27.15257 391 ft 16 kts 102°
2026-05-05 07:23 38.28930 27.15334 390 ft 18 kts 166°
2026-05-05 07:23 38.28793 27.15376 387 ft 22 kts 166°
2026-05-05 07:24 38.28633 27.15426 385 ft 25 kts 166°
2026-05-05 07:24 38.28520 27.15462 383 ft 17 kts 166°
2026-05-05 07:24 38.28396 27.15503 382 ft 20 kts 166°
2026-05-05 07:24 38.28251 27.15549 380 ft 23 kts 166°
2026-05-05 07:25 38.28082 27.15604 377 ft 27 kts 166°
2026-05-05 07:25 38.27912 27.15663 375 ft 26 kts 164°
2026-05-05 07:25 38.27769 27.15748 372 ft 16 kts 116°
2026-05-05 07:25 38.27802 27.15890 370 ft 17 kts 42°
2026-05-05 07:26 38.28052 27.15834 375 ft 70 kts 346°
2026-05-05 07:26 38.28733 27.15629 386 ft 127 kts 347°
2026-05-05 07:26 38.29713 27.15321 632 ft 151 kts 345°
2026-05-05 07:26 38.30723 27.14913 1207 ft 155 kts 341°
2026-05-05 07:27 38.31753 27.14522 1907 ft 153 kts 349°
2026-05-05 07:27 38.32824 27.14255 2436 ft 165 kts 351°
2026-05-05 07:27 38.34026 27.13976 2745 ft 187 kts 351°
2026-05-05 07:27 38.35389 27.13650 3073 ft 212 kts 351°
2026-05-05 07:28 38.36920 27.13270 3588 ft 233 kts 351°
2026-05-05 07:28 38.38438 27.12574 4505 ft 243 kts 327°
2026-05-05 07:28 38.39457 27.10794 5420 ft 263 kts 293°
2026-05-05 07:28 38.39688 27.08415 6346 ft 278 kts 275°
2026-05-05 07:29 38.39516 27.05923 7294 ft 284 kts 268°
2026-05-05 07:29 38.39201 27.03417 8233 ft 291 kts 262°
2026-05-05 07:29 38.38474 27.00982 8861 ft 304 kts 247°
2026-05-05 07:29 38.37407 26.98639 9043 ft 305 kts 245°
2026-05-05 07:30 38.36414 26.96262 9084 ft 303 kts 248°
2026-05-05 07:30 38.34572 26.91442 9075 ft 302 kts 250°
2026-05-05 07:30 38.33667 26.89030 9073 ft 302 kts 250°
2026-05-05 07:31 38.32755 26.86609 9060 ft 303 kts 250°
2026-05-05 07:31 38.31837 26.84192 9170 ft 306 kts 250°
2026-05-05 07:31 38.30900 26.81741 10080 ft 308 kts 249°
2026-05-05 07:31 38.29936 26.79226 10572 ft 327 kts 249°
2026-05-05 07:32 38.28905 26.76533 10797 ft 350 kts 249°
2026-05-05 07:32 38.27816 26.73701 11375 ft 360 kts 248°
2026-05-05 07:32 38.26607 26.70877 12149 ft 368 kts 240°
2026-05-05 07:32 38.24973 26.68392 12948 ft 375 kts 227°
2026-05-05 07:33 38.22862 26.66316 13755 ft 383 kts 213°
2026-05-05 07:33 38.20484 26.64836 14467 ft 387 kts 206°
2026-05-05 07:33 38.18009 26.63458 15208 ft 390 kts 206°
2026-05-05 07:33 38.15517 26.62072 15896 ft 392 kts 206°
2026-05-05 07:34 38.13007 26.60675 16595 ft 395 kts 206°
2026-05-05 07:34 38.10480 26.59267 17312 ft 397 kts 206°
2026-05-05 07:34 38.07936 26.57852 18018 ft 400 kts 207°
2026-05-05 07:34 38.05376 26.56428 18681 ft 403 kts 206°
2026-05-05 07:35 38.02796 26.54993 19357 ft 405 kts 207°
2026-05-05 07:35 38.00264 26.53418 20029 ft 405 kts 214°
2026-05-05 07:35 37.98005 26.51358 20703 ft 404 kts 224°
2026-05-05 07:35 37.96043 26.48800 21364 ft 403 kts 234°
2026-05-05 07:36 37.94349 26.45960 22002 ft 405 kts 236°
2026-05-05 07:36 37.92646 26.43092 22619 ft 409 kts 236°
2026-05-05 07:36 37.90920 26.40208 23227 ft 412 kts 236°
2026-05-05 07:36 37.89176 26.37312 23799 ft 415 kts 236°
2026-05-05 07:37 37.87436 26.34428 24298 ft 418 kts 236°
2026-05-05 07:37 37.85663 26.31495 24803 ft 420 kts 236°
2026-05-05 07:37 37.83887 26.28549 25295 ft 423 kts 236°
2026-05-05 07:37 37.82102 26.25579 25765 ft 425 kts 235°
2026-05-05 07:38 37.80308 26.22592 26031 ft 426 kts 235°
2026-05-05 07:38 37.78511 26.19597 26094 ft 430 kts 235°
2026-05-05 07:38 37.76697 26.16577 26098 ft 432 kts 235°
2026-05-05 07:38 37.74873 26.13550 26101 ft 432 kts 235°
2026-05-05 07:39 37.73047 26.10530 26100 ft 432 kts 235°
2026-05-05 07:39 37.71243 26.07548 26100 ft 432 kts 235°
2026-05-05 07:39 37.69393 26.04492 26101 ft 433 kts 235°
2026-05-05 07:39 37.67588 26.01520 26101 ft 433 kts 235°
2026-05-05 07:40 37.65751 25.98507 26102 ft 433 kts 235°
2026-05-05 07:40 37.63912 25.95491 26100 ft 432 kts 235°
2026-05-05 07:40 37.62082 25.92482 26098 ft 432 kts 235°
2026-05-05 07:40 37.60250 25.89478 26101 ft 432 kts 235°
2026-05-05 07:41 37.58413 25.86472 26103 ft 432 kts 235°
2026-05-05 07:41 37.56580 25.83472 26104 ft 432 kts 235°
2026-05-05 07:41 37.54744 25.80473 26105 ft 432 kts 235°
2026-05-05 07:41 37.52907 25.77474 26096 ft 432 kts 235°
2026-05-05 07:42 37.51087 25.74514 26094 ft 432 kts 234°
2026-05-05 07:42 37.49243 25.71520 26093 ft 432 kts 234°
2026-05-05 07:42 37.47394 25.68519 26094 ft 432 kts 234°
2026-05-05 07:42 37.45553 25.65527 26093 ft 432 kts 235°
2026-05-05 07:43 37.43714 25.62529 26087 ft 432 kts 235°
2026-05-05 07:43 37.41874 25.59521 26084 ft 432 kts 235°
2026-05-05 07:43 37.40057 25.56553 26086 ft 432 kts 235°
2026-05-05 07:43 37.38223 25.53558 26085 ft 432 kts 235°
2026-05-05 07:44 37.36382 25.50561 26076 ft 433 kts 235°
2026-05-05 07:44 37.34534 25.47558 26079 ft 433 kts 235°
2026-05-05 07:44 37.32690 25.44563 26081 ft 433 kts 235°
2026-05-05 07:44 37.31052 25.41415 26076 ft 429 kts 245°
2026-05-05 07:45 37.29958 25.37998 26078 ft 425 kts 257°
2026-05-05 07:45 37.29423 25.34365 26080 ft 422 kts 268°
2026-05-05 07:45 37.29460 25.30698 26089 ft 419 kts 279°
2026-05-05 07:45 37.30050 25.27133 26092 ft 416 kts 289°
2026-05-05 07:46 37.30970 25.23688 26100 ft 415 kts 290°
2026-05-05 07:46 37.31895 25.20239 26103 ft 415 kts 290°
2026-05-05 07:46 37.32817 25.16799 26106 ft 415 kts 290°
2026-05-05 07:46 37.33727 25.13400 26107 ft 415 kts 290°
2026-05-05 07:47 37.34649 25.09958 26101 ft 416 kts 290°
2026-05-05 07:47 37.35570 25.06519 26104 ft 415 kts 290°
2026-05-05 07:47 37.36491 25.03071 26105 ft 415 kts 290°
2026-05-05 07:47 37.37411 24.99622 26104 ft 415 kts 290°
2026-05-05 07:48 37.38326 24.96179 26116 ft 415 kts 290°
2026-05-05 07:48 37.39240 24.92732 26119 ft 415 kts 290°
2026-05-05 07:48 37.40154 24.89286 26121 ft 415 kts 290°
2026-05-05 07:48 37.41064 24.85847 26122 ft 415 kts 290°
2026-05-05 07:49 37.41975 24.82407 26124 ft 414 kts 290°
2026-05-05 07:49 37.42880 24.78970 26114 ft 410 kts 290°
2026-05-05 07:49 37.43762 24.75616 26115 ft 407 kts 290°
2026-05-05 07:49 37.44652 24.72241 26113 ft 406 kts 290°
2026-05-05 07:50 37.45545 24.68864 26110 ft 406 kts 290°
2026-05-05 07:50 37.46433 24.65494 26111 ft 406 kts 290°
2026-05-05 07:50 37.47318 24.62132 25934 ft 400 kts 290°
2026-05-05 07:50 37.48186 24.58822 24641 ft 398 kts 290°
2026-05-05 07:51 37.49061 24.55474 22990 ft 406 kts 289°
2026-05-05 07:51 37.49943 24.52082 21462 ft 407 kts 289°
2026-05-05 07:51 37.50816 24.48723 20372 ft 401 kts 289°
2026-05-05 07:51 37.51674 24.45426 20015 ft 391 kts 289°
2026-05-05 07:52 37.52232 24.43280 19692 ft 388 kts 289°
2026-05-05 07:52 37.53070 24.40056 19161 ft 385 kts 289°
2026-05-05 07:52 37.54170 24.35820 18485 ft 381 kts 290°
2026-05-05 07:52 37.54726 24.33675 18091 ft 380 kts 290°
2026-05-05 07:53 37.55444 24.30486 17533 ft 378 kts 283°
2026-05-05 07:53 37.55675 24.27190 16936 ft 379 kts 272°
2026-05-05 07:53 37.55603 24.23887 16357 ft 376 kts 271°
2026-05-05 07:53 37.55527 24.20593 15764 ft 373 kts 271°
2026-05-05 07:54 37.55456 24.17334 15163 ft 371 kts 272°
2026-05-05 07:54 37.55388 24.14097 14572 ft 368 kts 272°
2026-05-05 07:54 37.55322 24.10917 13985 ft 366 kts 272°
2026-05-05 07:54 37.55254 24.07712 13339 ft 364 kts 272°
2026-05-05 07:55 37.55185 24.04538 12753 ft 360 kts 271°
2026-05-05 07:55 37.55114 24.01394 12163 ft 357 kts 271°
2026-05-05 07:55 37.55044 23.98268 11581 ft 354 kts 271°
2026-05-05 07:55 37.54975 23.95184 11007 ft 351 kts 271°
2026-05-05 07:56 37.54902 23.92128 10686 ft 342 kts 271°
2026-05-05 07:56 37.54831 23.89190 10562 ft 327 kts 271°
2026-05-05 07:56 37.54762 23.86389 10432 ft 309 kts 271°
2026-05-05 07:56 37.54698 23.83779 10169 ft 298 kts 271°
2026-05-05 07:57 37.54636 23.81196 9978 ft 292 kts 271°
2026-05-05 07:57 37.54581 23.78644 9847 ft 291 kts 274°
2026-05-05 07:57 37.54857 23.76147 9542 ft 286 kts 288°
2026-05-05 07:57 37.55541 23.73821 9187 ft 281 kts 298°
2026-05-05 07:58 37.56504 23.71706 8650 ft 275 kts 308°
2026-05-05 07:58 37.57720 23.69866 8008 ft 272 kts 317°
2026-05-05 07:58 37.59170 23.68343 7434 ft 272 kts 328°
2026-05-05 07:58 37.60804 23.67191 7004 ft 267 kts 338°
2026-05-05 07:59 37.62557 23.66446 6536 ft 264 kts 348°
2026-05-05 07:59 37.64343 23.66120 6045 ft 262 kts 358°
2026-05-05 07:59 37.66158 23.66208 5565 ft 260 kts
2026-05-05 07:59 37.67919 23.66700 5096 ft 258 kts 18°
2026-05-05 08:00 37.69575 23.67571 4598 ft 258 kts 27°
2026-05-05 08:00 37.71080 23.68798 4114 ft 257 kts 38°
2026-05-05 08:00 37.72378 23.70342 3991 ft 258 kts 47°
2026-05-05 08:00 37.73462 23.72176 4009 ft 261 kts 57°
2026-05-05 08:01 37.74405 23.74143 4000 ft 263 kts 57°
2026-05-05 08:01 37.75468 23.76009 4001 ft 260 kts 42°
2026-05-05 08:01 37.76828 23.77371 3986 ft 247 kts 36°
2026-05-05 08:01 37.78198 23.78664 3693 ft 245 kts 35°
2026-05-05 08:02 37.79559 23.79950 3381 ft 243 kts 35°
2026-05-05 08:02 37.80915 23.81233 3054 ft 242 kts 35°
2026-05-05 08:02 37.82263 23.82509 2733 ft 243 kts 35°
2026-05-05 08:02 37.83621 23.83795 2414 ft 245 kts 36°
2026-05-05 08:03 37.84960 23.85064 2086 ft 233 kts 35°
2026-05-05 08:03 37.86227 23.86265 1786 ft 221 kts 35°
2026-05-05 08:03 37.87413 23.87391 1514 ft 205 kts 35°
2026-05-05 08:03 37.88522 23.88443 1226 ft 193 kts 34°
2026-05-05 08:04 37.89562 23.89429 979 ft 179 kts 36°
2026-05-05 08:04 37.90488 23.90308 769 ft 155 kts 37°
2026-05-05 08:04 37.91319 23.91096 572 ft 145 kts 38°
2026-05-05 08:04 37.92115 23.91855 351 ft 142 kts 38°
2026-05-05 08:05 37.92853 23.92563 298 ft 120 kts 38°
2026-05-05 08:05 37.93369 23.93064 292 ft 54 kts 36°
2026-05-05 08:05 37.93544 23.93258 292 ft 23 kts 52°
2026-05-05 08:05 37.93616 23.93409 296 ft 15 kts 67°
2026-05-05 08:06 37.93592 23.93507 299 ft 12 kts 159°
2026-05-05 08:06 37.93502 23.93512 302 ft 14 kts 156°
2026-05-05 08:06 37.93432 23.93611 304 ft 16 kts 127°
2026-05-05 08:06 37.93358 23.93735 303 ft 19 kts 127°
2026-05-05 08:07 37.93255 23.93836 302 ft 20 kts 177°
2026-05-05 08:07 37.93143 23.93926 302 ft 20 kts 132°
2026-05-05 08:07 37.93056 23.94067 301 ft 22 kts 124°
2026-05-05 08:07 37.92959 23.94228 301 ft 24 kts 129°
2026-05-05 08:08 37.92882 23.94385 301 ft 17 kts 82°
2026-05-05 08:08 37.92970 23.94489 303 ft 19 kts 32°
2026-05-05 08:08 37.93085 23.94587 303 ft 19 kts 17°
2026-05-05 08:08 37.93159 23.94594 303 ft 9 kts
2026-05-05 08:09 37.93222 23.94606 301 ft 10 kts 19°
2026-05-05 08:09 37.93284 23.94654 301 ft 8 kts 35°
2026-05-05 08:09 37.93335 23.94673 301 ft 7 kts 333°
2026-05-05 08:09 37.93358 23.94637 301 ft 4 kts 306°
2026-05-05 08:10 37.93371 23.94616 302 ft 0 kts 307°